Temp
18 17 17 17 17 17 16 16 16 16 16 16 15 15 15 15 15 16 16 16 16 16 16 16 16 16 16 16 16 16 15 15 14 14 15 15 15 15 15 14 14 14
18 17 17 18 18 17 16 16 16 16 16 16 16 15 15 15 15 16 16 16 16 16 16 16 16 16 16 16 16 16 16 15 15 14 14 14 14 14 14 14 14 14
18 17 17 18 18 18 17 16 16 16 16 16 16 15 15 15 15 15 16 16 16 16 16 16 16 16 16 16 16 16 16 16 15 15 14 14 14 14 14 14 14 14
18 17 17 18 18 18 17 17 16 16 16 16 16 16 15 15 15 15 15 15 16 16 16 16 16 16 16 16 16 16 16 15 15 15 15 14 14 14 14 14 14 14
17 17 17 18 18 17 17 17 17 17 16 16 16 16 16 16 15 15 15 15 15 15 15 15 15 15 15 15 16 16 16 16 15 15 15 15 14 14 14 14 14 14
17 17 17 18 18 17 17 17 17 17 17 17 16 16 16 16 16 15 16 16 16 15 15 15 15 15 15 15 15 15 16 16 15 15 15 15 15 14 14 14 14 14
16 16 17 17 17 17 17 17 17 17 17 17 16 16 16 16 16 16 16 16 16 16 16 15 15 15 15 15 15 15 15 15 15 15 15 15 14 14 14 14 14 14
16 16 16 17 17 17 17 17 17 17 17 17 17 17 16 16 16 16 16 16 16 16 16 16 16 15 15 15 15 15 14 14 14 14 14 14 14 14 14 14 14 14
16 16 16 17 17 17 17 17 17 16 16 16 16 16 16 16 17 16 16 16 16 16 16 16 16 15 15 15 15 15 15 15 14 14 14 14 14 14 14 14 14 14
15 15 16 16 17 17 17 17 17 15 15 15 15 16 16 15 15 15 16 16 16 16 16 16 16 15 15 15 15 15 15 15 15 15 15 14 14 14 14 14 14 14
15 16 16 16 16 16 16 16 16 15 15 16 16 15 15 14 13 13 14 15 15 16 16 16 16 16 15 15 15 15 15 15 15 15 15 15 14 14 14 14 14 14
16 16 16 16 16 16 16 16 15 15 15 15 15 15 15 15 14 13 13 14 15 16 16 16 16 16 15 15 15 15 15 15 15 15 15 15 15 14 14 14 14 14
16 16 15 15 15 16 16 16 16 15 15 15 15 15 15 15 15 15 14 13 14 15 16 15 15 15 15 15 15 15 15 15 15 15 15 15 15 15 14 14 14 14
16 16 15 14 15 16 16 16 16 15 15 15 15 15 14 15 15 14 14 13 13 15 15 15 15 15 15 15 15 15 15 15 15 15 15 15 15 15 14 14 14 14
16 15 15 15 15 16 15 15 15 15 15 15 15 15 14 14 15 15 14 14 14 14 15 15 15 15 15 15 15 15 15 15 15 15 15 15 15 15 14 14 14 14
15 15 14 15 15 16 15 15 15 15 15 15 15 15 14 14 14 14 14 14 14 14 14 15 15 15 15 15 15 15 14 15 15 14 14 14 14 14 14 14 14 14
15 15 15 15 15 15 15 15 14 14 14 14 14 14 13 13 13 13 14 14 14 14 14 14 14 14 14 14 14 14 14 14 14 14 14 14 14 14 14 14 14 14
14 14 14 14 14 14 14 14 14 14 14 14 14 14 13 13 13 13 14 14 14 14 14 14 15 15 14 14 13 13 13 13 13 13 13 13 13 14 13 13 13 13
14 14 14 14 14 14 14 14 14 15 15 15 15 15 15 15 15 15 15 14 14 15 15 15 15 15 14 14 14 13 13 13 13 13 13 13 13 13 13 13 13 13
15 15 15 15 15 15 15 15 15 15 15 15 15 15 15 15 15 15 15 15 15 15 15 15 15 15 14 14 14 14 13 13 13 13 13 13 12 12 12 12 12 12
16 16 16 15 15 15 15 15 15 15 15 15 15 15 15 15 15 15 15 15 15 15 15 15 15 15 14 14 14 14 13 13 13 13 13 13 12 12 12 12 12 11
15 15 15 15 15 15 15 15 15 15 15 15 14 14 14 14 14 14 14 14 15 15 15 15 15 14 14 14 14 14 13 13 13 13 13 12 11 11 11 11 11 11
15 15 15 15 15 15 15 15 15 15 15 14 14 14 14 14 14 14 14 14 14 14 14 14 14 14 14 14 14 14 13 13 13 13 12 12 11 10 10 10 11 11
15 15 15 15 15 15 15 15 15 15 15 15 15 15 14 14 14 14 14 14 14 14 14 14 14 14 14 14 14 13 13 13 13 12 12 11 10 10 10 10 10 11
14 14 15 15 15 15 15 15 15 15 14 14 14 14 14 14 14 14 14 14 14 13 13 13 13 13 13 13 13 13 13 13 12 12 11 10 10 10 10 10 10 10
14 14 14 14 14 14 14 14 14 14 14 14 14 14 14 14 14 13 13 13 13 13 12 13 13 12 12 12 12 12 12 12 12 11 11 10 10 10 10 10 10 9
Height
810 810 811 811 812 815 817 818 819 820 820 820 820 820 820 819 819 820 820 820 821 820 820 821 821 822 823 824 825 825 826 827 827 828 828 829 829 829 830 830 830 830
810 812 811 811 812 815 817 818 819 820 821 821 822 821 821 821 820 821 821 821 821 821 821 821 822 822 824 824 825 826 826 827 828 829 830 830 830 831 831 831 831 831
810 813 812 811 812 815 817 818 820 821 822 822 823 823 822 822 822 822 822 822 821 821 821 821 822 823 824 825 826 827 827 828 828 829 830 831 831 832 832 832 832 832
809 812 812 811 813 816 817 818 820 821 822 822 823 823 823 823 823 823 823 823 822 822 822 822 822 823 824 825 826 827 827 828 829 829 830 830 831 832 832 832 832 832
808 810 811 810 813 816 817 818 819 820 821 822 823 823 823 823 824 824 824 824 824 823 823 822 823 823 824 825 826 826 827 828 829 829 830 830 830 831 832 832 832 833
807 809 810 810 811 814 816 816 818 820 821 822 823 823 823 823 824 825 825 825 825 824 824 823 824 824 825 826 826 827 827 828 828 829 830 830 830 831 831 832 832 832
807 810 810 810 810 812 814 815 817 819 820 822 823 823 823 824 824 825 825 826 825 825 825 824 825 825 825 826 827 828 828 829 829 830 830 831 831 832 832 832 833 833
808 810 811 811 811 812 814 815 816 818 820 821 822 823 824 824 825 825 826 826 825 825 825 825 826 826 826 826 827 828 829 829 830 831 831 832 832 832 833 833 833 833
808 810 811 811 811 812 813 814 816 818 819 821 822 823 824 825 826 826 826 825 825 824 824 825 826 827 827 827 827 827 828 829 830 831 832 832 832 832 833 833 833 834
808 809 809 810 812 812 812 813 815 817 819 821 822 823 825 826 827 827 827 826 825 824 823 824 825 826 827 827 827 828 828 828 829 830 831 832 833 833 833 833 833 833
806 806 807 809 811 813 813 814 816 818 820 821 822 823 824 825 827 830 831 829 826 825 824 824 825 826 828 828 828 828 828 829 829 829 830 831 832 833 833 833 833 833
803 804 805 807 810 811 812 813 815 817 820 821 821 822 822 823 826 830 832 830 827 825 824 825 825 826 828 829 828 828 828 829 829 829 829 830 831 832 833 833 834 834
802 804 805 807 808 810 811 812 814 816 818 819 820 820 821 821 823 827 829 828 826 825 825 825 825 826 827 828 828 828 828 828 828 829 829 829 830 831 832 833 833 834
802 803 805 806 808 809 810 812 814 815 817 817 818 819 820 821 823 824 826 827 826 824 824 824 825 825 826 826 826 826 826 826 827 827 828 828 829 829 830 831 832 832
801 802 804 806 807 807 809 812 813 815 816 817 818 818 819 821 823 824 825 825 824 823 824 823 823 824 824 824 824 824 824 825 825 825 826 826 827 828 829 830 831 831
801 802 804 806 806 807 809 811 813 814 815 816 816 817 817 821 824 825 824 823 823 822 822 822 823 823 823 823 823 822 823 823 823 823 824 825 826 826 827 828 829 830
802 803 804 805 806 807 809 810 812 814 814 815 815 816 818 821 824 825 823 822 822 821 821 821 821 821 821 821 821 821 821 821 822 822 822 823 823 824 825 826 827 828
805 805 806 807 808 809 809 810 811 812 813 814 815 816 818 820 821 821 821 820 820 819 819 819 819 819 819 819 819 819 820 820 820 820 821 821 821 822 823 824 824 825
805 806 807 808 808 809 809 810 810 811 812 814 814 815 816 817 817 817 817 817 817 817 817 817 817 818 818 818 818 818 818 818 818 818 818 819 819 820 821 821 822 823
804 805 806 806 807 807 808 809 810 811 811 812 813 813 814 814 814 814 814 814 814 815 815 815 816 816 816 816 817 816 817 817 816 816 816 816 817 818 818 819 820 821
802 803 803 804 805 806 807 808 809 810 810 811 811 811 811 812 812 812 812 813 813 813 813 814 814 815 815 815 815 815 815 815 815 815 815 815 815 816 817 818 818 819
801 802 802 803 804 805 806 807 808 809 809 810 810 810 811 811 811 811 811 812 812 812 812 812 813 813 814 814 814 814 814 814 814 814 813 813 814 814 815 816 817 818
801 801 802 803 804 805 805 806 807 808 808 809 809 809 810 810 810 810 810 811 811 811 811 811 811 812 812 812 812 813 813 813 813 813 813 813 813 814 814 815 816 818
801 801 802 802 803 804 804 805 806 806 807 808 808 808 809 809 809 810 810 810 810 810 810 810 810 810 811 811 811 811 811 811 811 812 812 812 813 814 814 815 816 818
801 802 802 802 802 802 803 804 805 805 806 807 808 808 809 809 809 809 809 809 809 809 809 809 809 810 810 810 810 810 811 811 811 811 812 812 813 814 815 816 817 818
802 802 802 802 802 802 802 803 804 805 805 806 807 808 808 809 809 810 810 810 809 809 809 809 809 809 809 810 810 810 810 810 810 811 812 813 814 814 815 816 817 818
Wind_Speed
24 24 22 19 17 16 16 16 14 14 14 12 12 11 12 13 12 11 9 9 9 10 11 11 11 11 10 9 9 9 8 8 8 7 7 8 9 9 8 8 7 7
25 24 22 18 16 16 16 15 14 14 14 12 11 11 12 13 13 12 11 10 10 9 10 10 10 10 9 9 8 9 9 9 9 7 6 8 8 7 8 8 7 7
25 24 22 18 16 17 16 15 14 13 13 12 11 12 12 12 13 13 12 12 10 9 9 9 9 8 7 8 8 9 9 9 10 8 7 8 7 6 7 7 7 8
25 25 23 17 14 15 15 15 15 13 13 13 12 13 13 12 12 12 13 13 12 11 10 9 9 8 7 7 7 9 9 9 10 9 8 8 6 6 6 6 7 8
24 26 25 18 15 17 17 16 16 15 14 13 13 14 14 13 12 11 12 13 14 13 11 10 10 8 8 8 8 9 9 10 9 8 8 8 7 6 7 7 7 7
26 28 26 20 18 19 18 17 17 17 16 16 15 15 15 15 14 12 12 13 14 14 13 12 11 10 9 8 8 8 8 9 9 8 8 8 8 7 7 7 6 6
28 29 26 22 20 19 19 18 19 19 19 18 18 17 16 16 16 14 13 12 13 13 14 13 12 11 10 9 8 7 7 7 7 7 7 7 7 7 7 6 5 5
25 27 25 22 21 20 19 18 20 22 21 21 22 21 19 18 17 16 14 13 12 12 12 13 13 12 11 11 10 9 8 7 7 7 7 6 6 7 6 5 3 3
21 24 23 22 22 22 19 18 21 22 22 22 24 23 23 22 20 18 16 14 13 11 11 12 12 13 13 12 11 10 10 9 8 8 8 7 7 7 7 5 4 3
17 20 22 22 23 23 20 18 20 21 21 21 22 23 24 23 21 20 19 17 15 13 12 11 12 13 14 14 13 12 11 10 10 9 9 9 8 8 8 7 6 5
18 19 21 22 22 21 18 17 18 19 21 21 22 24 24 21 18 17 18 19 17 15 13 13 13 13 15 15 14 14 13 12 11 11 10 10 11 10 10 9 9 7
20 19 19 20 21 21 20 20 19 19 21 23 24 24 23 22 19 20 22 24 21 17 15 14 14 14 16 17 16 15 15 15 14 13 12 12 12 13 13 12 12 11
18 18 17 17 18 19 20 20 18 19 21 24 24 23 22 22 22 23 26 27 25 21 19 18 17 17 18 19 18 18 18 18 18 17 16 15 15 14 15 15 14 13
17 17 16 16 16 16 16 16 17 20 21 21 20 20 20 18 18 21 23 23 22 22 21 20 19 18 18 18 18 18 19 20 21 21 20 19 18 17 17 17 17 16
18 19 16 15 16 16 15 16 18 18 19 19 20 20 19 16 17 21 22 21 20 19 18 17 17 17 18 18 18 19 20 20 21 23 24 23 21 20 20 20 19 18
13 15 13 13 15 17 17 19 19 19 19 20 20 20 20 19 22 24 22 20 19 18 17 17 17 18 18 18 18 19 18 18 18 21 23 24 24 23 22 22 22 21
9 11 12 13 15 16 17 18 19 18 17 17 16 16 18 21 23 23 19 17 16 16 16 16 15 14 13 14 14 15 16 16 16 17 18 21 23 24 24 25 24 24
12 13 14 16 17 16 14 14 14 13 12 12 12 12 13 14 14 14 12 11 10 10 10 9 8 8 8 9 11 12 13 14 15 16 17 18 20 22 24 25 26 26
11 12 14 15 15 14 12 11 11 10 8 7 6 5 4 3 3 3 3 3 4 4 5 5 5 5 6 7 7 8 8 10 11 14 16 17 19 21 22 23 25 26
6 7 8 9 9 9 9 9 9 8 7 6 5 4 3 3 2 2 1 1 2 3 3 4 5 6 6 5 5 5 5 6 7 9 11 13 15 17 19 21 22 24
4 3 4 6 7 8 8 8 8 6 5 4 2 2 2 2 3 3 2 2 2 3 4 5 6 6 6 4 4 5 5 6 7 9 11 11 13 14 16 18 20 22
3 3 5 7 7 7 6 6 5 4 3 2 1 1 2 3 3 4 4 4 5 5 5 6 6 7 6 6 6 6 7 7 7 8 9 9 10 11 12 14 16 18
5 5 6 7 8 7 6 5 4 3 3 2 1 2 4 5 5 6 7 7 8 8 8 8 8 8 8 8 8 7 7 7 7 6 5 5 5 6 7 9 11 13
5 6 7 8 10 9 7 6 5 5 5 4 4 6 7 8 7 8 9 11 11 11 11 11 10 11 11 9 9 9 8 7 6 4 3 4 5 7 8 10 11 12
3 4 6 8 10 10 9 8 7 7 6 6 6 7 7 8 7 8 10 13 15 15 14 12 11 12 13 11 9 8 7 5 4 3 5 7 9 10 11 11 11 10
5 4 4 5 6 7 7 7 7 6 6 7 7 7 7 7 7 7 8 11 15 16 14 13 12 12 12 11 8 7 6 5 5 6 9 11 12 12 11 10 10 9
Wind_Direction
191 187 185 181 182 186 188 194 201 202 202 204 204 193 179 172 170 173 171 157 145 130 122 116 107 104 104 105 104 106 117 125 121 119 113 107 105 100 95 90 88 88
192 191 189 183 185 191 193 199 207 210 211 213 211 200 187 179 177 180 178 167 159 146 136 129 120 115 113 114 114 110 113 117 122 130 126 115 111 103 92 86 85 88
192 195 195 187 189 195 197 205 211 214 217 218 215 205 195 189 186 187 186 179 173 163 154 146 136 131 129 126 123 122 121 117 122 134 136 127 120 110 95 83 85 94
194 202 200 187 193 203 202 210 215 216 219 218 213 207 203 199 195 195 193 190 188 181 173 167 160 154 152 151 144 138 135 127 126 136 142 139 134 121 104 87 84 91
201 207 203 187 193 207 207 210 214 216 218 217 211 208 208 206 203 203 200 196 195 193 187 183 182 179 174 170 165 159 152 144 140 144 148 148 149 143 126 113 100 91
207 209 205 192 192 203 207 210 214 217 219 220 216 211 210 208 206 206 203 197 197 198 197 195 194 194 192 188 181 175 170 163 157 157 158 154 157 159 149 140 125 105
211 209 206 198 192 198 206 213 218 221 222 223 223 218 215 212 209 208 205 200 196 197 201 203 204 202 200 200 198 192 187 182 178 174 171 163 164 168 163 159 146 121
215 212 207 201 194 195 206 217 223 225 227 228 229 226 222 218 214 210 207 203 199 200 205 210 213 212 207 206 206 205 202 200 202 198 191 184 180 180 176 178 179 150
214 212 208 203 199 197 204 218 227 231 232 232 232 231 228 225 223 218 212 207 204 205 210 216 221 221 219 217 215 213 211 211 217 219 217 212 201 196 197 199 201 200
206 206 204 203 201 201 206 219 231 237 237 236 237 236 233 231 230 227 222 218 215 216 219 223 226 227 228 227 225 225 223 222 224 225 229 231 225 218 217 215 214 220
201 202 201 199 199 202 208 221 235 242 241 239 241 239 236 238 246 250 244 234 230 231 230 233 234 236 239 239 237 236 235 235 235 233 235 238 237 235 233 232 231 231
199 198 195 195 196 199 205 215 227 235 235 233 235 236 235 235 244 255 253 244 241 240 240 242 242 244 246 247 247 246 245 245 243 242 241 241 242 241 239 240 240 240
201 198 191 190 196 202 209 217 224 228 228 228 230 235 238 238 240 242 243 244 245 245 245 246 246 248 252 252 254 255 254 253 250 249 247 243 244 244 241 242 241 241
212 209 199 194 198 207 216 222 227 231 233 233 235 237 238 239 239 238 240 247 253 251 249 250 249 249 253 256 260 262 262 260 258 255 252 247 245 245 244 243 242 241
212 207 201 202 209 216 220 219 221 230 236 239 242 244 241 237 237 244 251 256 256 252 248 248 249 250 253 259 264 265 265 265 262 258 254 251 249 248 246 244 242 242
207 202 201 207 214 222 225 222 223 229 235 240 245 248 248 240 235 242 254 257 255 255 254 254 256 260 263 266 266 266 266 265 263 261 257 254 252 250 249 247 244 243
196 203 209 213 217 222 225 224 225 228 232 239 243 244 243 234 226 231 243 249 252 257 258 259 263 267 270 269 266 266 266 264 262 261 259 256 255 252 251 250 247 243
184 191 197 202 206 211 214 217 220 224 229 234 234 232 232 227 222 227 237 244 252 259 261 265 272 282 284 279 275 271 269 266 262 259 259 258 258 256 255 254 249 243
185 190 193 196 200 205 210 214 216 217 214 207 199 190 185 184 193 210 231 259 282 287 283 278 276 283 290 290 291 289 281 274 270 267 265 262 261 261 259 257 252 242
185 186 189 194 195 194 193 189 185 180 170 157 142 126 108 92 80 61 38 341 317 306 289 273 262 266 279 289 298 306 304 296 290 284 278 270 264 262 262 260 253 241
175 168 174 178 169 162 160 160 162 163 158 151 132 98 63 42 36 21 5 341 318 300 287 281 273 269 272 282 299 307 308 307 302 292 285 276 266 262 260 257 250 239
180 173 172 172 166 164 165 166 171 177 175 173 145 58 12 3 358 345 338 334 323 310 299 293 288 281 274 275 287 298 304 310 308 296 289 282 270 262 258 251 245 236
209 203 193 191 192 194 196 202 214 225 223 225 272 330 340 344 345 343 336 330 326 322 313 303 294 287 281 278 283 290 299 311 314 303 288 275 256 240 231 223 217 212
225 227 227 217 210 209 215 229 244 250 251 256 276 299 314 323 331 341 340 333 329 324 316 308 297 285 276 273 277 282 289 303 311 296 253 225 203 186 185 186 184 186
296 259 245 226 216 218 225 227 227 229 234 247 264 278 288 297 307 322 331 332 331 325 320 315 303 285 272 264 262 269 274 281 278 236 189 183 182 174 172 176 177 177
285 275 251 228 216 216 215 211 214 221 235 250 259 259 262 266 274 286 305 322 328 326 323 320 306 287 271 259 252 250 249 239 223 202 182 175 176 175 172 171 170 171